Change the Weather History Date:

Monday, April 28, 2014

  Actual Average (KMML) Record (KMML)
Temperature  
Mean Temperature 42 °F -  
Max Temperature 44 °F 65 °F 91 °F (2004)
Min Temperature 41 °F 39 °F 26 °F (2005)
Degree Days  
Heating Degree Days 22    
Moisture  
Dew Point 41 °F    
Average Humidity 95    
Maximum Humidity 97    
Minimum Humidity 91    
Precipitation  
Precipitation 0.66 in - - ()
Sea Level Pressure  
Sea Level Pressure 29.55 in    
Wind  
Wind Speed 17 mph (East)    
Max Wind Speed 28 mph    
Max Gust Speed 41 mph    
Visibility 7 miles    
Events Rain , Thunderstorm    
Averages and records for this station are not official NWS values.
T = Trace of Precipitation, MM = Missing Value Source: NWS Daily Summary

Daily Weather History Graph

Daily Weather History Graph

Search for Another Location

Airport or City:

Trip Planner

Search our weather history database for the weather conditions in past years. The results will help you decide how hot, cold, wet, or windy it might be!

Date:

Astronomy

Apr. 28, 2014 Rise Set
Actual Time 6:19 AM CDT 8:26 PM CDT
Civil Twilight 5:47 AM CDT 8:58 PM CDT
Nautical Twilight 5:08 AM CDT 9:37 PM CDT
Astronomical Twilight 4:25 AM CDT 10:21 PM CDT
Moon 6:00 AM CDT (4/28) 8:04 PM CDT (4/28)
Length of Visible Light 15h 10m
Length of Day
14h 06m
Waning Crescent, 0% of the Moon is Illuminated
Apr 28
Waning Crescent
Apr 29
New
May 6
First Quarter
May 14
Full
May 21
Last Quarter

Hourly Weather History & Observations

Time (CDT) Temp. Windchill Dew Point Humidity Pressure Visibility Wind Dir Wind Speed Gust Speed Precip Events Conditions
12:14 AM 42.1 °F 34.2 °F 40.1 °F 93% 29.52 in 10.0 mi East 16.1 mph 25.3 mph N/A   Overcast
12:34 AM 42.1 °F 33.9 °F 39.7 °F 91% 29.52 in 10.0 mi East 17.3 mph 25.3 mph N/A   Overcast
12:54 AM 42.1 °F 33.1 °F 39.7 °F 91% 29.53 in 10.0 mi East 20.7 mph - N/A   Overcast
1:14 AM 42.3 °F 34.1 °F 39.9 °F 91% 29.53 in 10.0 mi East 17.3 mph 25.3 mph N/A   Overcast
1:34 AM 42.3 °F 34.4 °F 40.1 °F 92% 29.53 in 10.0 mi East 16.1 mph - N/A   Overcast
1:54 AM 42.3 °F 33.8 °F 40.1 °F 92% 29.52 in 10.0 mi East 18.4 mph 24.2 mph N/A   Overcast
2:15 AM 42.4 °F 33.5 °F 40.5 °F 93% 29.51 in 10.0 mi East 20.7 mph - N/A   Overcast
2:34 AM 42.8 °F 34.0 °F 40.6 °F 92% 29.50 in 10.0 mi East 20.7 mph 26.5 mph N/A   Overcast
3:14 AM 43.0 °F 35.7 °F 41.2 °F 93% 29.49 in 10.0 mi East 15.0 mph - N/A   Overcast
3:34 AM 43.0 °F 36.0 °F 41.4 °F 94% 29.48 in 10.0 mi East 13.8 mph 20.7 mph N/A   Overcast
3:54 AM 43.0 °F 36.4 °F 41.5 °F 95% 29.48 in 7.0 mi East 12.7 mph 21.9 mph N/A   Overcast
4:14 AM 42.8 °F 35.4 °F 41.4 °F 95% 29.48 in 7.0 mi East 15.0 mph 20.7 mph N/A   Overcast
4:34 AM 43.2 °F 35.9 °F 41.9 °F 95% 29.49 in 7.0 mi East 15.0 mph - N/A   Overcast
4:54 AM 43.3 °F 36.1 °F 42.1 °F 95% 29.49 in 7.0 mi East 15.0 mph 18.4 mph N/A   Overcast
5:14 AM 43.7 °F 36.3 °F 42.4 °F 95% 29.48 in 5.0 mi East 16.1 mph 21.9 mph N/A Rain Light Rain
5:34 AM 44.1 °F 37.1 °F 43.2 °F 97% 29.49 in 7.0 mi East 15.0 mph - 0.01 in Rain Light Rain
5:54 AM 44.1 °F 36.5 °F 43.0 °F 96% 29.49 in 7.0 mi East 17.3 mph - 0.01 in   Overcast
6:14 AM 43.7 °F 34.5 °F 42.6 °F 96% 29.50 in 10.0 mi East 24.2 mph - N/A   Overcast
6:34 AM 43.3 °F 34.0 °F 42.1 °F 95% 29.49 in 7.0 mi East 24.2 mph - N/A   Overcast
6:54 AM 43.0 °F 35.1 °F 41.9 °F 96% 29.50 in 7.0 mi East 17.3 mph 25.3 mph N/A   Overcast
7:14 AM 42.8 °F 34.8 °F 41.5 °F 95% 29.51 in 5.0 mi East 17.3 mph 21.9 mph N/A Rain Light Rain
7:34 AM 42.6 °F 35.2 °F 41.5 °F 96% 29.51 in 5.0 mi East 15.0 mph 25.3 mph N/A Rain Light Rain
7:54 AM 42.4 °F 34.4 °F 41.4 °F 96% 29.51 in 3.0 mi East 17.3 mph 24.2 mph 0.02 in Rain Light Rain
8:14 AM 42.1 °F 34.9 °F 41.2 °F 97% 29.51 in 4.0 mi East 13.8 mph - 0.02 in Rain Light Rain
8:35 AM 42.1 °F 34.5 °F 41.2 °F 97% 29.51 in 4.0 mi East 15.0 mph 25.3 mph 0.05 in Rain Light Rain
8:54 AM 42.1 °F 34.2 °F 41.2 °F 97% 29.51 in 7.0 mi East 16.1 mph - 0.05 in Rain Light Rain
9:14 AM 42.1 °F 34.5 °F 41.2 °F 97% 29.51 in 5.0 mi East 15.0 mph 23.0 mph N/A Rain Light Rain
9:35 AM 41.9 °F 34.0 °F 41.0 °F 97% 29.51 in 1.0 mi East 16.1 mph 24.2 mph 0.01 in Rain Light Rain
9:54 AM 41.9 °F 34.3 °F 41.2 °F 97% 29.51 in 1.2 mi East 15.0 mph 23.0 mph 0.02 in Rain Light Rain
10:13 AM 41.9 °F 32.1 °F 41.2 °F 97% 29.49 in 1.0 mi East 24.2 mph - 0.04 in Rain Light Rain
10:34 AM 42.1 °F 33.3 °F 41.4 °F 97% 29.51 in 2.5 mi East 19.6 mph 24.2 mph 0.09 in Rain Rain
10:54 AM 42.3 °F 35.1 °F 41.5 °F 97% 29.51 in 5.0 mi ENE 13.8 mph - 0.10 in Rain Light Rain
11:14 AM 42.3 °F 35.1 °F 41.5 °F 97% 29.52 in 5.0 mi East 13.8 mph - 0.02 in Rain Rain
11:34 AM 42.4 °F 34.4 °F 41.5 °F 97% 29.52 in 5.0 mi East 17.3 mph - 0.04 in Rain , Thunderstorm Rain
11:54 AM 42.4 °F 34.4 °F 41.4 °F 96% 29.53 in 4.0 mi East 17.3 mph 24.2 mph 0.07 in Rain Light Rain
12:34 PM 41.9 °F 31.5 °F 41.0 °F 97% 29.48 in 0.5 mi East 27.6 mph 41.4 mph 0.13 in   Unknown
12:54 PM 42.1 °F 33.1 °F 41.4 °F 97% 29.51 in 3.0 mi East 20.7 mph 32.2 mph 0.16 in Rain Light Rain
1:14 PM 42.1 °F 33.3 °F 41.2 °F 97% 29.51 in 7.0 mi East 19.6 mph 24.2 mph N/A Rain Light Rain
1:34 PM 42.3 °F 33.6 °F 41.2 °F 96% 29.51 in 10.0 mi East 19.6 mph 26.5 mph N/A   Overcast
1:54 PM 42.4 °F 34.4 °F 41.0 °F 95% 29.52 in 10.0 mi East 17.3 mph 28.8 mph N/A   Overcast
2:14 PM 42.4 °F 33.8 °F 40.6 °F 93% 29.53 in 10.0 mi East 19.6 mph 28.8 mph N/A   Overcast
2:54 PM 42.8 °F 35.1 °F 40.6 °F 92% 29.53 in 10.0 mi East 16.1 mph 21.9 mph N/A   Overcast
3:15 PM 42.8 °F 33.8 °F 40.5 °F 91% 29.54 in 10.0 mi East 21.9 mph 27.6 mph N/A   Overcast
3:34 PM 42.6 °F 34.0 °F 40.5 °F 92% 29.54 in 7.0 mi East 19.6 mph - N/A   Overcast
4:14 PM 42.8 °F 33.8 °F 40.5 °F 91% 29.54 in 10.0 mi East 21.9 mph 29.9 mph N/A   Light Drizzle
4:34 PM 42.8 °F 34.0 °F 41.0 °F 93% 29.54 in 10.0 mi East 20.7 mph 29.9 mph N/A   Overcast
4:54 PM 42.8 °F 34.0 °F 41.0 °F 93% 29.54 in 10.0 mi East 20.7 mph 26.5 mph N/A   Overcast
5:14 PM 43.0 °F 34.8 °F 41.0 °F 93% 29.56 in 10.0 mi East 18.4 mph 26.5 mph N/A   Overcast
5:34 PM 43.0 °F 36.0 °F 41.0 °F 93% 29.57 in 10.0 mi East 13.8 mph 28.8 mph N/A   Overcast
5:55 PM 43.0 °F 34.8 °F 40.6 °F 91% 29.58 in 10.0 mi East 18.4 mph 24.2 mph N/A   Overcast
6:14 PM 42.8 °F 35.1 °F 41.0 °F 93% 29.59 in 3.0 mi East 16.1 mph 25.3 mph N/A   Overcast
6:34 PM 42.3 °F 34.1 °F 41.0 °F 95% 29.60 in 2.5 mi East 17.3 mph 23.0 mph N/A Rain Light Rain
6:55 PM 42.1 °F 34.2 °F 41.0 °F 96% 29.60 in 1.8 mi ENE 16.1 mph - N/A Rain Light Rain
7:14 PM 42.1 °F 33.3 °F 41.2 °F 97% 29.61 in 2.0 mi ENE 19.6 mph - 0.02 in Rain Light Rain
7:34 PM 41.9 °F 34.0 °F 41.0 °F 97% 29.61 in 2.0 mi ENE 16.1 mph 20.7 mph 0.05 in Rain Rain
7:54 PM 41.9 °F 35.0 °F 41.0 °F 97% 29.63 in 2.5 mi ENE 12.7 mph 21.9 mph 0.10 in Rain Rain
8:14 PM 41.9 °F 33.4 °F 41.0 °F 97% 29.64 in 5.0 mi East 18.4 mph 24.2 mph 0.03 in Rain Rain
8:34 PM 41.9 °F 34.3 °F 41.0 °F 97% 29.64 in 3.0 mi ENE 15.0 mph - 0.11 in Rain Light Rain
8:54 PM 41.9 °F 34.0 °F 41.0 °F 97% 29.65 in 10.0 mi ENE 16.1 mph 20.7 mph 0.12 in Rain Light Rain
9:14 PM 41.9 °F 34.6 °F 41.0 °F 97% 29.66 in 10.0 mi ENE 13.8 mph - N/A Rain Light Rain
9:34 PM 41.5 °F 33.5 °F 40.6 °F 97% 29.66 in 5.0 mi East 16.1 mph 20.7 mph N/A Rain Light Rain
9:54 PM 41.4 °F 34.0 °F 40.5 °F 97% 29.67 in 7.0 mi East 13.8 mph - N/A   Overcast
10:14 PM 41.4 °F 33.6 °F 40.3 °F 96% 29.67 in 10.0 mi ENE 15.0 mph - N/A   Overcast
10:34 PM 41.4 °F 34.3 °F 40.3 °F 96% 29.68 in 5.0 mi ENE 12.7 mph - N/A   Overcast
10:54 PM 41.4 °F 34.3 °F 40.5 °F 97% 29.68 in 7.0 mi ENE 12.7 mph - N/A   Overcast
11:14 PM 41.2 °F 33.4 °F 40.5 °F 97% 29.69 in 4.0 mi ENE 15.0 mph 18.4 mph N/A   Overcast
11:34 PM 41.2 °F 33.0 °F 40.5 °F 97% 29.69 in 5.0 mi ENE 16.1 mph 20.7 mph N/A   Overcast
11:54 PM 41.0 °F 33.5 °F 40.3 °F 97% 29.68 in 5.0 mi NE 13.8 mph - 0.01 in Rain Rain